Regional Weather Roundup
Issued by NWS

Home | Current Version | Previous Version | Text Only | Print | Product List | Glossary Off
Versions: 1 2 3 4 5 6 7 8 9 10 11 12 13 14 15 16 17 18 19 20 21 22 23 24 25 26 27 28 29 30 31 32 33 34 35 36 37 38 39 40 41 42 43 44 45 46 47 48 49 50

000
ASUS43 KLSX 191807
RWRMO

WEATHER SUMMARY FOR MISSOURI
NATIONAL WEATHER SERVICE SPRINGFIELD MO
100 PM CDT THU OCT 19 2017

NOTE: "FAIR" INDICATES FEW OR NO CLOUDS BELOW 12,000 FEET WITH NO
       SIGNIFICANT WEATHER AND/OR OBSTRUCTIONS TO VISIBILITY.
       CURRENT SKY AND/OR WEATHER CONDITIONS ARE NOT AVAILABLE FOR
       CHILLICOTHE AND FARMINGTON.

MOZ001>031-035>038-043-044-053-054-191900-
...NORTHERN AND WESTERN MISSOURI...

CITY           SKY/WX    TMP DP  RH WIND       PRES   REMARKS
KANSAS CTY INT FAIR      73  52  47 S8        30.11F
6HR MIN TEMP:  47; 6HR MAX TEMP:  74;

KANSAS C DTWN  FAIR      75  52  44 SW7       30.10F
6HR MIN TEMP:  52; 6HR MAX TEMP:  75;

LEE`S SUMMIT   FAIR      75  51  43 SW13      30.12F
6HR MIN TEMP:  53; 6HR MAX TEMP:  75;

ST JOSEPH      FAIR      74  53  48 VRB6      30.09F
6HR MIN TEMP:  40; 6HR MAX TEMP:  74;

CHILLICOTHE      N/A     73  54  51 SE6       30.13F
6HR MIN TEMP:  45; 6HR MAX TEMP:  73;

KIRKSVILLE     FAIR      72  56  57 SE8       30.14F
6HR MIN TEMP:  47; 6HR MAX TEMP:  72;


$$
MOZ066>068-077>081-088>096-101>105-191900-
...SOUTHWEST MISSOURI...

CITY           SKY/WX    TMP DP  RH WIND       PRES   REMARKS
SPRINGFIELD    FAIR      76  52  43 VRB7      30.19F
6HR MIN TEMP:  49; 6HR MAX TEMP:  76;

JOPLIN         FAIR      76  54  46 SW13      30.17F
6HR MIN TEMP:  52; 6HR MAX TEMP:  76;

BRANSON        MOSUNNY   75  48  38 CALM      30.22F

$$
MOZ032>034-039>042-045>050-055>058-069>072-191900-
...CENTRAL MISSOURI...

CITY           SKY/WX    TMP DP  RH WIND       PRES   REMARKS
COLUMBIA       FAIR      75  51  43 SW8       30.17F
6HR MIN TEMP:  49; 6HR MAX TEMP:  75;

JEFFERSON CITY FAIR      75  49  39 W7        30.16F
6HR MIN TEMP:  48; 6HR MAX TEMP:  75;

ROLLA          FAIR      74  50  42 SW6       30.20F
6HR MIN TEMP:  53; 6HR MAX TEMP:  74;

SEDALIA        FAIR      77  52  41 S13       30.16F
6HR MIN TEMP:  57; 6HR MAX TEMP:  77;

WHITEMAN AFB   SUNNY     75  52  43 SW12      30.10F
WARRENSBURG    FAIR      75  50  41 S10       30.13F
OSAGE BEACH    FAIR      77  52  41 SW8       30.18F

$$
MOZ051-052-059>065-191900-
...EAST CENTRAL MISSOURI...

CITY           SKY/WX    TMP DP  RH WIND       PRES   REMARKS
ST LOUIS INTL  FAIR      75  50  41 SW7       30.19F
6HR MIN TEMP:  55; 6HR MAX TEMP:  76;

SPIRIT OF STL  FAIR      76  52  43 VRB6      30.17F
6HR MIN TEMP:  45; 6HR MAX TEMP:  76;

ST CHARLES     FAIR      76  51  41 MISG      30.17F
6HR MIN TEMP:  47; 6HR MAX TEMP:  76;


$$
MOZ072>076-082>087-097>100-106>115-191900-
...SOUTH CENTRAL AND SOUTHEAST MISSOURI...

CITY           SKY/WX    TMP DP  RH WIND       PRES   REMARKS
CAPE GIRARDEAU FAIR      75  50  41 MISG      30.22F
6HR MIN TEMP:  48; 6HR MAX TEMP:  75;

FARMINGTON     FAIR      76  50  40 CALM      30.21F
6HR MIN TEMP:  51; 6HR MAX TEMP:  77;

POPLAR BLUFF   FAIR      75  52  44 S7        30.22F
6HR MIN TEMP:  44; 6HR MAX TEMP:  75;

WEST PLAINS    FAIR      76  48  37 CALM      30.23F
6HR MIN TEMP:  44; 6HR MAX TEMP:  77;


$$


USA.gov is the U.S. government's official web portal to all federal, state and local government web resources and services.